Date,TemperatureHighF,TemperatureAvgF,TemperatureLowF,DewpointHighF,DewpointAvgF,DewpointLowF,HumidityHigh,HumidityAvg,HumidityLow,PressureMaxIn,PressureMinIn,WindSpeedMaxMPH,WindSpeedAvgMPH,GustSpeedMaxMPH,PrecipitationSumIn
2013-9-1,87,76,70,74,68,65,90,78,57,29.66,29.59,14,1,21,0.01
2013-9-2,86,74,68,72,68,65,92,82,63,29.70,29.60,7,0,12,0.00
2013-9-3,90,80,68,72,67,63,93,65,45,29.75,29.59,0,0,5,0.00
2013-9-4,91,74,61,68,64,60,96,75,43,29.85,29.74,1,0,7,0.00
2013-9-5,89,72,62,68,63,59,97,76,39,29.89,29.83,0,0,5,0.00
2013-9-6,92,72,58,68,62,57,97,74,42,29.90,29.80,0,0,4,0.00
2013-9-7,89,73,60,70,65,58,95,78,47,29.86,29.74,6,0,12,0.00
2013-9-8,92,76,64,72,67,62,94,76,44,29.76,29.68,2,0,8,0.00
2013-9-9,93,77,65,71,67,63,96,75,46,29.85,29.74,4,0,13,0.00
2013-9-10,94,79,66,71,67,64,94,70,42,29.95,29.84,20,0,27,0.58
2013-9-11,93,78,69,73,69,66,99,78,46,29.96,29.83,0,0,0,0.00
2013-9-12,90,76,69,74,69,66,91,81,56,29.84,29.65,4,0,12,0.00
2013-9-13,83,71,60,70,62,52,94,74,46,29.71,29.62,2,0,10,0.00
2013-9-14,81,63,50,58,54,48,96,73,43,29.81,29.68,0,0,7,0.00
2013-9-15,86,68,52,65,59,51,97,77,45,29.89,29.81,8,0,19,0.00
2013-9-16,89,73,60,69,62,55,94,69,35,29.90,29.83,0,0,3,0.00
2013-9-17,82,70,62,66,61,57,88,73,56,29.94,29.85,11,0,21,0.00
2013-9-18,79,70,64,65,59,56,86,70,60,29.95,29.84,4,0,12,0.00
2013-9-19,87,72,60,68,62,57,93,75,48,29.92,29.77,2,0,11,0.00
2013-9-20,89,78,64,68,65,60,89,65,45,29.81,29.63,6,0,17,0.00
2013-9-21,75,69,63,67,63,59,91,82,68,29.63,29.49,7,0,17,1.84
2013-9-22,79,64,54,61,56,53,97,78,48,29.65,29.55,2,0,13,0.00
2013-9-23,85,66,52,65,58,51,99,78,45,29.74,29.64,2,0,12,0.00
2013-9-24,76,66,56,67,60,54,94,81,63,29.77,29.62,4,0,8,0.00
2013-9-25,73,67,64,67,64,62,97,92,80,29.62,29.56,0,0,1,1.09
2013-9-26,82,69,60,68,63,59,97,83,51,29.75,29.60,1,0,7,0.06
2013-9-27,85,67,56,65,60,56,99,81,44,29.88,29.75,0,0,2,0.00
2013-9-28,84,69,57,64,60,55,96,75,46,29.94,29.82,2,0,11,0.00
2013-9-29,78,66,58,60,58,54,94,76,50,29.87,29.74,2,0,14,0.00
2013-9-30,81,66,54,63,59,54,97,81,49,29.81,29.71,8,0,14,0.00